Back to catalog

FENGYUN 1C DEB

AlivePO
NORAD 30846·DEBRIS·🇨🇳 China

Launched May 10, 1999 from Taiyuan Satellite Launch Center

Loading…

Next Passes (next 24 hours)

TLE

FreshSource: Space-Track

Epoch: Sep 14, 2026, 09:21 UTC

1 30846U 99025AWG 26257.38990890  .00001354  00000-0  41524-3 0  9996
2 30846  99.3202 101.0321 0051783 248.0219 235.2492 14.42803592 18943

Track FENGYUN 1C DEB in real time with AllMySat

Download on the App Store